Lid_Strength_Index
-1 -0 1 3 11 12 15 13 8 9 8 6 5 7 8 7 9 13 2 1 0 0 -0 -1 -2 -2 -2 -1 -1 -1 -2 -2 -2 -2 -2 -2 -2 -2 -2 -2 -2 -2 -2 -2 -2 -2 -2 -2 -2
-0 0 2 6 13 16 15 10 10 8 7 5 5 6 7 9 5 4 3 1 -0 -0 -0 -0 -2 -2 -2 -1 -1 -1 -1 -1 -2 -1 -2 -2 -2 -2 -2 -2 -2 -2 -2 -2 -2 -2 -2 -2 -2
0 1 7 10 13 16 15 10 8 6 6 6 6 5 6 7 4 3 1 0 -0 0 -0 -0 -2 -2 -2 -1 -2 -1 -1 -1 -2 -1 -2 -2 -2 -2 -2 -2 -2 -2 -2 -2 -2 -2 -2 -2 -2
2 4 6 13 14 12 11 9 7 7 6 5 5 8 4 2 3 2 0 0 0 0 -0 -1 -1 -2 -2 -1 -1 -1 -1 -1 -1 -2 -2 -2 -2 -2 -2 -2 -2 -2 -2 -2 -2 -2 -2 -2 -2
2 6 12 13 13 11 8 7 7 8 7 6 5 8 7 3 1 1 1 0 1 0 -0 -0 -2 -2 -2 -1 -2 -2 -2 -1 -1 -2 -2 -2 -2 -2 -2 -2 -2 -2 -2 -2 -2 -2 -1 -2 -1
7 7 14 15 13 10 9 7 6 7 6 6 6 7 6 2 2 1 0 1 0 0 -0 -0 -1 -1 -2 -2 -2 -1 -1 -2 -2 -2 -2 -2 -2 -2 -2 -2 -2 -2 -2 -2 -2 -1 -1 -1 -1
8 10 13 13 13 11 9 6 8 8 7 6 5 8 5 3 1 1 1 0 0 -0 0 -0 -0 -1 -2 -2 -2 -1 -2 -2 -2 -2 -2 -2 -2 -2 -2 -2 -2 -2 -2 -2 -2 -1 -1 -1 -2
6 9 12 12 13 12 8 7 6 7 8 3 4 8 7 3 1 1 1 1 0 0 0 0 -0 -0 0 -0 -2 -2 -2 -2 -2 -2 -2 -2 -2 -2 -2 -2 -2 -2 -2 -2 -1 -1 -1 -1 -2
4 12 14 12 11 10 7 8 6 5 7 5 4 4 3 2 1 2 2 2 1 1 0 0 0 -0 0 0 -1 -1 -2 -2 -2 -1 -2 -2 -0 -0 -1 -1 -2 -2 -2 -2 -1 -1 -1 -1 -1
8 12 12 8 8 9 8 8 7 8 8 7 5 3 2 2 2 3 3 3 2 2 1 0 0 0 0 -0 -0 0 -0 -0 -0 -1 -1 0 -0 1 -1 -1 -2 -2 -2 -1 -1 -1 -1 -1 -1
8 11 9 8 7 7 8 8 6 8 9 6 6 5 3 3 3 3 3 2 2 2 1 1 0 0 0 -0 -0 -0 -0 -0 -0 -0 -0 -0 -0 1 0 0 -0 -0 -1 0 -1 -0 -1 -0 -0
10 8 8 8 6 7 8 6 8 7 7 5 4 3 3 4 3 3 3 3 2 2 1 0 0 -0 0 0 0 -0 -0 0 0 -0 -0 0 -0 -0 0 0 0 0 -0 -1 2 2 -0 -0 0
8 8 7 6 6 6 6 7 8 8 5 4 3 3 4 4 4 2 2 2 2 2 1 1 0 1 -0 0 1 0 0 -0 0 -0 -0 -0 -0 0 1 1 -0 -0 -1 0 2 3 0 0 0
7 7 6 6 7 6 8 8 7 7 5 5 4 4 4 3 3 3 3 3 2 2 1 1 0 1 -0 1 -0 0 0 0 -0 0 -0 -0 -0 0 0 1 0 0 -1 0 0 0 0 0 1
6 9 7 7 7 8 7 10 10 6 5 6 5 4 4 3 3 3 3 3 2 1 1 1 1 0 0 0 0 0 0 -0 0 0 -0 -0 -0 0 0 0 0 0 0 0 0 0 0 0 0
9 9 12 8 7 7 8 13 9 6 6 7 5 4 4 3 3 2 2 2 2 1 1 1 0 0 0 0 0 0 -0 1 1 0 0 -0 -0 -0 0 0 0 0 0 0 0 0 1 1 1
10 13 12 10 7 8 9 12 8 6 7 6 5 5 4 4 3 2 2 2 1 1 1 1 1 1 0 0 0 -0 1 1 0 2 0 -0 -0 -0 0 0 -0 0 0 0 1 1 1 1 1
13 12 10 12 9 9 11 11 9 7 6 6 6 5 5 4 4 3 2 2 1 1 1 1 1 1 1 0 0 0 0 1 -0 1 0 -0 -0 -0 0 -0 0 0 0 1 1 1 0 1 1
10 10 11 10 9 10 11 11 10 7 7 7 6 6 5 5 3 2 2 2 1 1 1 1 1 1 1 1 1 1 2 1 1 0 -0 -0 -0 -0 0 0 0 0 1 1 1 1 1 1 1
10 11 12 10 8 10 11 11 9 8 7 6 6 6 5 4 4 3 2 2 2 2 2 1 1 1 1 1 1 1 1 1 0 -0 -0 -0 -0 -0 0 0 0 0 0 1 1 1 2 2 2
11 13 12 12 10 10 11 13 11 9 7 6 6 5 5 5 4 4 3 3 2 2 2 2 1 1 1 1 1 1 2 2 1 1 1 -0 -0 -0 -0 0 0 0 0 1 1 1 2 2 1
14 9 8 10 12 17 11 18 13 11 10 8 7 6 5 5 4 3 3 3 3 2 1 1 1 1 1 0 1 2 3 4 2 1 0 0 -0 0 -0 -0 0 0 1 1 1 0 1 2 3
11 8 9 10 12 14 14 17 14 11 12 10 8 6 5 5 4 4 4 3 2 2 2 1 1 1 1 1 1 1 2 1 1 1 1 1 0 0 -0 0 0 0 1 1 1 1 1 1 2
8 9 9 10 12 16 12 15 16 13 12 9 8 7 6 5 4 3 3 2 2 2 2 1 1 1 1 1 1 1 2 2 2 2 2 1 1 0 0 0 0 0 1 0 0 1 1 1 1
9 12 15 16 16 17 11 13 15 11 9 8 8 7 6 5 4 4 3 3 3 2 2 2 2 2 1 1 1 1 1 1 1 1 1 2 1 1 1 0 0 0 0 0 0 1 1 1 1
11 12 15 19 18 15 12 17 14 9 8 7 7 6 6 5 5 4 3 3 3 2 2 2 2 2 1 1 1 1 1 1 1 1 1 1 1 1 0 0 0 0 0 0 0 0 1 1 1
11 12 10 13 14 15 15 13 10 8 8 8 7 7 6 5 5 5 4 3 3 3 2 2 2 2 1 1 1 1 1 1 2 1 1 1 1 0 0 -0 0 0 0 0 0 1 1 1 1
9 8 13 13 17 18 16 16 15 12 11 9 9 8 7 6 5 5 4 3 3 2 2 2 2 2 1 1 1 1 1 1 1 1 1 1 1 0 0 0 0 0 0 0 0 1 1 1 1
10 12 11 12 13 16 20 17 11 11 10 10 8 7 7 6 5 5 4 3 3 2 2 2 2 2 2 1 1 1 1 1 1 1 1 1 1 1 2 1 0 0 0 0 1 1 1 1 1
10 11 11 14 15 16 17 18 9 9 8 8 8 7 6 5 5 4 4 3 3 3 2 2 2 2 1 2 2 1 1 1 1 1 1 0 1 1 2 0 2 1 0 0 1 1 1 1 1